Flag for Malaysia Weather past 2 weeks in Kuala Lumpur, Malaysia

Now
79 °F

Partly cloudy.


Feels Like: 82 °F
Forecast: 71 / 93 °F
Wind: 1 mph from Northwest

Location: Sultan Abdul Aziz Shah-Subang

Current Time: Aug 21, 2014 at 3:10:32 AM

Latest Report: Aug 21, 2014 at 2:00 AM


Visibility: N/A

Pressure: 29.83 "Hg

Humidity: 84%

Dew point: 73 °F

Location of Kuala LumpurLocation

Historic Weather in Kuala Lumpur — Graph

°F

Kuala Lumpur temperature yesterday

Maximum temperature yesterday: 90 °F (at 1:00 PM)
Minimum temperature yesterday: 75 °F (at 2:00 AM)
Average temperature yesterday: 82 °F

Past Weeks' High & Low Weather Summary

 TemperatureHumidityPressure
High95 °F (Aug 9, 2:00 PM)100% (Aug 17, 2:00 AM)29.95 "Hg (Aug 17, 2:00 AM)
Low73 °F (Aug 16, 10:00 AM)44% (Aug 9, 1:00 PM)29.74 "Hg (Aug 7, 4:00 PM)
Average82 °F78%29.85 "Hg
* Reported Aug 6 2:00 AM — Aug 21 2:00 AM, Kuala Lumpur, Weather by CustomWeather, © 2014

Note: Actual official high and low records may vary slightly from our data, if they occured in-between our weather recording intervals... More about our weather records

Advertising

Kuala Lumpur weather history for previous 24 hours

 ConditionsComfort  
Time TempWeatherWind HumidityBarometerVisibility
2:00 AM
Aug 21
79 °FPartly cloudy.1 mph84%29.83 "HgN/A
1:00 AM81 °FPartly cloudy.No wind79%29.86 "HgN/A
12:00 AM81 °FPartly cloudy.6 mph79%29.86 "HgN/A
11:00 PM
Aug 20
82 °FPartly cloudy.6 mph79%29.89 "HgN/A
10:00 PM84 °FPartly cloudy.6 mph74%29.86 "HgN/A
9:00 PM84 °FPartly cloudy.5 mph74%29.83 "HgN/A
8:00 PM86 °FPartly cloudy.5 mph66%29.80 "HgN/A
7:00 PM88 °FBroken clouds.6 mph62%29.77 "HgN/A
6:00 PM90 °FBroken clouds.7 mph63%29.77 "HgN/A
5:00 PM90 °FPartly sunny.5 mph63%29.74 "HgN/A
4:00 PM88 °FBroken clouds.5 mph66%29.77 "HgN/A
3:00 PM88 °FBroken clouds.9 mph66%29.80 "HgN/A
2:00 PM90 °FBroken clouds.8 mph63%29.83 "HgN/A
1:00 PM90 °FBroken clouds.5 mph59%29.86 "HgN/A
12:00 PM88 °FPartly sunny.5 mph66%29.89 "HgN/A
11:00 AM84 °FPartly sunny.3 mph74%29.89 "HgN/A
10:00 AM82 °FPartly sunny.7 mph79%29.89 "HgN/A
9:00 AM79 °FPartly sunny.2 mph89%29.89 "HgN/A
8:00 AM77 °FBroken clouds.No wind89%29.86 "HgN/A
7:00 AM75 °FPassing clouds.2 mph89%29.83 "Hg5 mi
6:00 AM75 °FPassing clouds.No wind94%29.83 "Hg3 mi
5:00 AM75 °FPartly cloudy.No wind94%29.83 "Hg3 mi
4:00 AM75 °FPartly cloudy.No wind94%29.83 "Hg3 mi
3:00 AM75 °FPartly cloudy.No wind94%29.86 "Hg3 mi
Weather by CustomWeather, © 2014

See weather overviewHow to use our weather pages